DW1345 Weather Reports


Display with metric or nautical units.
time (UTC)temp
F
wind
direction
speed
MPH
gust
MPH
rain 1hr
in
rain 24hr
in
rain mn
in
humidity
%
barometer
mb
20260905231556 45 197 0.0 0.0 0.00 0.00 0.00 93 1005.0
20260905230054 45 197 0.0 0.0 0.00 0.00 0.00 93 1004.8
20260905224552 45 197 0.0 0.0 0.00 0.00 0.00 92 1004.6
20260905223055 45 197 0.0 0.0 0.00 0.00 0.00 92 1004.7
20260905221548 45 197 0.0 0.0 0.00 0.00 0.00 92 1004.7
20260905220046 46 197 0.0 0.0 0.00 0.00 0.00 92 1004.4
20260905214547 46 197 0.0 0.0 0.00 0.00 0.00 92 1004.2
20260905213042 46 197 0.0 0.0 0.00 0.00 0.00 91 1004.2
20260905211539 47 197 0.0 0.0 0.00 0.00 0.00 91 1003.9
20260905210050 47 197 0.0 0.0 0.00 0.00 0.00 90 1003.7
20260905204535 48 197 0.0 0.0 0.00 0.00 0.00 90 1003.5
20260905203032 48 197 0.0 0.0 0.00 0.00 0.00 89 1003.4
20260905201531 49 197 0.0 0.0 0.00 0.00 0.00 89 1003.4
20260905200032 50 197 0.0 0.0 0.00 0.00 0.00 88 1003.2
20260905194521 51 197 0.0 0.0 0.00 0.00 0.00 88 1003.0
20260905193021 52 197 0.0 0.0 0.00 0.00 0.00 88 1003.0
20260905191520 52 197 0.0 0.0 0.00 0.00 0.00 87 1002.9
20260905190015 53 197 0.0 0.0 0.00 0.00 0.00 87 1002.6
20260905184526 54 198 0.0 0.0 0.00 0.00 0.00 86 1002.6
20260905183012 54 198 0.0 0.0 0.00 0.00 0.00 85 1002.5
20260905181510 55 198 0.0 0.0 0.00 0.00 0.00 83 1002.2
20260905180010 56 199 0.0 0.0 0.00 0.00 0.00 81 1002.1
20260905174508 57 198 1.0 0.0 0.00 0.00 0.00 80 1001.9
20260905173010 58 194 2.0 0.0 0.00 0.00 0.00 78 1001.9
20260905171507 59 192 1.0 0.0 0.00 0.00 0.00 77 1001.7
20260905170005 60 202 1.0 0.0 0.00 0.00 0.00 74 1001.6
20260905164502 61 207 1.0 0.0 0.00 0.00 0.00 70 1001.4
20260905163001 61 143 0.0 0.0 0.00 0.00 0.00 70 1001.3
20260905161600 61 143 0.0 0.0 0.00 0.00 0.00 64 1001.0
20260905160059 62 144 0.0 0.0 0.00 0.00 0.00 63 1001.2
20260905154603 63 144 0.0 0.0 0.00 0.00 0.00 61 1000.9
20260905153056 63 196 0.0 0.0 0.00 0.00 0.00 63 1000.8
20260905151604 63 197 0.0 0.0 0.00 0.00 0.00 67 1000.6
20260905150054 61 198 2.0 0.0 0.00 0.00 0.00 70 1000.6
20260905144554 62 192 2.0 0.0 0.00 0.00 0.00 69 1000.6
20260905143053 62 215 0.0 0.0 0.00 0.00 0.00 69 1000.4
20260905141551 61 229 1.0 0.0 0.00 0.00 0.00 70 1000.3
20260905140050 61 206 2.0 0.0 0.00 0.00 0.00 68 1000.2
20260905134549 61 221 1.0 0.0 0.00 0.00 0.00 69 1000.1
20260905133047 62 223 1.0 0.0 0.00 0.00 0.00 69 1000.0
20260905131555 65 202 2.0 0.0 0.00 0.00 0.00 64 999.9
20260905130044 64 210 1.0 0.0 0.00 0.00 0.00 66 999.9
20260905124542 62 207 1.0 0.0 0.00 0.00 0.00 67 999.7
20260905123101 61 240 2.0 0.0 0.00 0.00 0.00 67 999.8
20260905121538 62 240 2.0 0.0 0.00 0.00 0.00 66 999.8
20260905120037 64 281 2.0 0.0 0.00 0.00 0.00 63 999.5
20260905114538 64 206 2.0 0.0 0.00 0.00 0.00 61 999.7
20260905113034 64 242 0.0 0.0 0.00 0.00 0.00 57 999.4
20260905111530 65 128 0.0 0.0 0.00 0.00 0.00 54 999.3
20260905110026 64 132 1.0 0.0 0.00 0.00 0.00 58 999.2
20260905104523 64 115 1.0 0.0 0.00 0.00 0.00 59 999.1
20260905103024 62 154 1.0 0.0 0.00 0.00 0.00 62 999.1
20260905101518 62 72 3.0 0.0 0.00 0.00 0.00 60 998.9
20260905100014 61 82 3.0 0.0 0.00 0.00 0.00 63 998.8
20260905094514 61 102 3.0 0.0 0.00 0.00 0.00 64 998.8
20260905093011 60 101 3.0 0.0 0.00 0.00 0.00 64 998.9
20260905091508 60 138 5.0 0.0 0.00 0.00 0.00 64 998.8
20260905090007 60 136 5.0 0.0 0.00 0.00 0.00 65 998.7
20260905084506 60 76 4.0 0.0 0.00 0.00 0.00 65 998.7
20260905083002 59 101 4.0 0.0 0.00 0.00 0.00 67 998.7
20260905081559 58 78 4.0 0.0 0.00 0.00 0.00 68 998.5
20260905080135 57 121 5.0 0.0 0.00 0.00 0.00 70 998.5
20260905074555 57 128 5.0 0.0 0.00 0.00 0.00 70 998.5
20260905073053 56 88 4.0 0.0 0.00 0.00 0.00 72 998.4
20260905071551 56 68 5.0 0.0 0.00 0.00 0.00 73 998.4
20260905070055 56 117 5.0 0.0 0.00 0.00 0.00 74 998.2
20260905064558 56 125 3.0 0.0 0.00 0.00 0.00 76 998.2
20260905063049 56 80 4.0 0.0 0.00 0.00 0.00 74 998.2
20260905061555 56 80 4.0 0.0 0.00 0.00 0.00 74 997.9
20260905060056 55 96 5.0 0.0 0.00 0.00 0.00 75 997.9
20260905054553 55 81 3.0 0.0 0.00 0.00 0.00 75 997.9
20260905053053 55 78 4.0 0.0 0.00 0.00 0.00 75 997.7
20260905051553 55 77 3.0 0.0 0.00 0.00 0.00 75 997.7
20260905050044 54 82 3.0 0.0 0.00 0.00 0.00 76 997.8
20260905044546 53 70 1.0 0.0 0.00 0.00 0.00 77 997.7
20260905043056 54 81 1.0 0.0 0.00 0.00 0.00 77 997.7
20260905041541 54 82 1.0 0.0 0.00 0.00 0.00 77 997.7
20260905040048 53 85 0.0 0.0 0.00 0.00 0.00 77 997.6
20260905034540 54 68 0.0 0.0 0.00 0.00 0.00 76 997.6
20260905033036 54 69 2.0 0.0 0.00 0.00 0.00 76 997.5
20260905031540 54 92 3.0 0.0 0.00 0.00 0.00 76 997.5
20260905030035 54 97 3.0 0.0 0.00 0.00 0.00 77 997.5
20260905024533 54 92 3.0 0.0 0.00 0.00 0.00 77 997.5
20260905023031 54 85 4.0 0.0 0.00 0.00 0.00 78 997.5
20260905021541 55 119 4.0 0.0 0.00 0.00 0.00 77 997.4
20260905020030 55 93 4.0 0.0 0.00 0.00 0.00 77 997.5
20260905014526 55 90 4.0 0.0 0.00 0.00 0.00 77 997.4
20260905013027 56 92 4.0 0.0 0.00 0.00 0.00 75 997.3
20260905011528 56 79 4.0 0.0 0.00 0.00 0.00 75 997.4
20260905010031 56 86 4.0 0.0 0.00 0.00 0.00 76 997.3
20260905004532 56 95 4.0 0.0 0.00 0.00 0.00 76 997.3
20260905003038 56 86 4.0 0.0 0.00 0.00 0.00 76 997.3
20260905001522 56 81 5.0 0.0 0.00 0.00 0.00 76 997.4
20260905000022 56 113 5.0 0.0 0.00 0.00 0.00 76 997.4
20260904234526 56 117 5.0 0.0 0.00 0.00 0.00 75 997.5
20260904233037 56 101 3.0 0.0 0.00 0.00 0.00 76 997.6